AirNav   Pilot Hours Calculator
 
 1152 users online  

61D Plainwell Municipal Airport
Plainwell, Michigan, USA

GOING TO PLAINWELL?


FAA INFORMATION EFFECTIVE 26 MARCH 2020

Location

FAA Identifier: 61D
Lat/Long: 42-28-04.0553N 085-38-52.9659W
42-28.067588N 085-38.882765W
42.4677931,-85.6480461
(estimated)
Elevation: 722 ft. / 220 m (estimated)
Variation: 03W (1985)
From city: 2 miles N of PLAINWELL, MI
Time zone: UTC -4 (UTC -5 during Standard Time)
Zip code: 49080

Airport Operations

Airport use: Open to the public
Activation date: 09/1946
Control tower: no
ARTCC: CHICAGO CENTER
FSS: LANSING FLIGHT SERVICE STATION
NOTAMs facility: LAN (NOTAM-D service available)
Attendance: IREG
Wind indicator: lighted
Segmented circle: no
Lights: FOR LIRL RY 09/27 KEY 122.8 5 TIMES ON.

Airport Communications

CTAF/UNICOM: 122.8
WX ASOS at AZO (15 nm S): 127.25 (269-459-3391)

Nearby radio navigation aids

VOR radial/distance  VOR name  Freq  Var
AZOr344/14.5KALAMAZOO VOR/DME109.0001W
PMMr090/20.2PULLMAN VOR/DME112.1000E
VIOr203/20.3VICTORY VOR/DME115.9504W
ELXr047/28.6KEELER VOR/DME116.6000E

Airport Services

Fuel available: 100LL
Parking: tiedowns
Airframe service: MAJOR
Powerplant service: MAJOR
Bottled oxygen: NONE
Bulk oxygen: NONE

Runway Information

Runway 9/27

Dimensions: 2650 x 50 ft. / 808 x 15 m
Surface: asphalt, in poor condition
EXTSV RY CRACKING. LOOSE STONES AND AGGREGATE.
Runway edge lights: low intensity
RUNWAY 9  RUNWAY 27
Latitude: 42-28.048333N42-28.053333N
Longitude: 085-39.126667W085-38.538333W
Elevation: 722.0 ft.722.0 ft.
Traffic pattern: leftleft
Runway heading: 092 magnetic, 089 true272 magnetic, 269 true
Displaced threshold: 191 ft.775 ft.
Markings: basic, in fair conditionbasic, in fair condition
Runway end identifier lights: nono
Obstructions: 17 ft. road, 201 ft. from runway
4 FT FENCE, 50 FT DST FM RY END; 17 FT RD, 140 FT FM RY END.
55 ft. trees, 201 ft. from runway
4 FT FENCE 62 FT FM RY END, 15 FT ROAD, 100 FT FM RY END, 40 FT TREE, 155 FT FM RY END.

Runway 1/19

Dimensions: 2550 x 100 ft. / 777 x 30 m
Surface: turf, in good condition
Runway edge markings: 01/19 & DSPLCD THLDS MKD WITH YELLOW CONES.
RUNWAY 1  RUNWAY 19
Latitude: 42-27.876667N42-28.293333N
Longitude: 085-38.970000W085-38.900000W
Elevation: 722.0 ft.722.0 ft.
Traffic pattern: leftleft
Runway heading: 010 magnetic, 007 true190 magnetic, 187 true
Displaced threshold: 268 ft.980 ft.
Runway end identifier lights: nono
Obstructions: 40 ft. tree, 120 ft. from runway, 120 ft. right of centerline, 3:1 slope to clear
APCH RATIO 1:1 TO DSPLCD THLD BASED ON 50 FT TREE 30 FT FM DSPLCD THLD 150 FT R, 20:1 BASED ON STRAIGHT OUT.
70 ft. trees, 96 ft. from runway, 1:1 slope to clear
APCH RATIO 8:1 TO DSPLCD THLD BASED ON 50 FT TREES 360 FT FM DSPLCD THLD 105R, 15:1 BASED ON STRAIGHT OUT.

Airport Ownership and Management from official FAA records

Ownership: Publicly-owned
Owner: CITY OF PLAINWELL
211 N. MAIN
PLAINWELL, MI 49080-1397
Phone 269-685-6821
Manager: VIRGIL WILLIAMS
132 COUNTRY CLUB
PLAINWELL, MI 49080
Phone 269-685-6268

Airport Operational Statistics

Aircraft based on the field: 21
Single engine airplanes: 21
    
Aircraft operations: avg 77/week *
50% transient general aviation
50% local general aviation
* for 12-month period ending 31 December 2016

Additional Remarks

FOR FLD COND. CALL MGR RES. 269-685-6268.
FOR CD CTC GREAT LAKES APCH AT 269-459-3345, WHEN APCH CLSD CTC CHICAGO ARTCC AT 630-906-8921.

Instrument Procedures

There are no published instrument procedures at 61D.

Some nearby airports with instrument procedures:

35D - Padgham Field Airport (9 nm NW)
KAZO - Kalamazoo/Battle Creek International Airport (15 nm S)
9D9 - Hastings Airport (18 nm NE)
KBTL - W K Kellogg Airport (20 nm SE)
KGRR - Gerald R Ford International Airport (25 nm N)
 
Loc | Ops | Rwys | IFR | FBO | Links
Com | Nav | Svcs | Stats | Notes
Area around 61D (Plainwell Municipal Airport)
 
Road maps at: MapQuest Bing Google
 
Aerial photo
WARNING: Photo may not be current or correct
Aerial photo of 61D (Plainwell Municipal Airport)
Do you have a better or more recent aerial photo of Plainwell Municipal Airport that you would like to share? If so, please send us your photo.

 
Sectional chart

 
Airport distance calculator
Flying to Plainwell Municipal Airport? Find the distance to fly.

From to 61D

Sunrise and sunset
Times for 09-Apr-2020
 Local
(UTC-4)
 Zulu
(UTC)
Morning civil twilight06:4210:42
Sunrise07:1111:11
Sunset20:1700:17
Evening civil twilight20:4600:46

Current date and time
Zulu (UTC)  09-Apr-2020 15:19:20
Local (UTC-4)  09-Apr-2020 11:19:20
 
METAR
KAZO 
15nm S 
091453Z 31018G27KT 10SM BKN029 05/M02 A2968 RMK AO2 PK WND 31029/1436 SLP056 T00501022 51008
KBTL 
20nm SE 
091453Z 28019G29KT 10SM SCT027 OVC035 05/M01 A2966 RMK AO2 PK WND 28029/1452 RAB41E44 SLP046 P0000 60000 T00501006 51005
KGRR 
26nm N 
091453Z 30018G27KT 10SM -RASN FEW022 BKN028 OVC044 03/M01 A2964 RMK AO2 PK WND 30032/1431 RAB09E29B51SNB51 SLP042 P0000 60000 T00331006 51008
KBIV 
26nm NW 
091453Z AUTO 30017G27KT 10SM SCT028 04/M02 A2969 RMK AO2 PK WND 32032/1432 SLP057 T00441022 50012
KLWA 
28nm W 
091455Z AUTO 31012G21KT 10SM CLR 05/M03 A2972 RMK AO2 T00501031
TAF
KAZO 
15nm S 
091121Z 0912/1012 32008KT P6SM VCSH BKN050 OVC070 FM091400 27014G26KT P6SM VCSH SCT035 BKN050 FM091800 30024G34KT P6SM VCSH BKN050 FM100300 30015G24KT P6SM BKN100
NOTAMs
Click for the latest NOTAMs
NOTAMs are issued by the DoD/FAA and will open in a separate window not controlled by AirNav.

 

 
 

FBO, Fuel Providers, and Aircraft Ground Support

  
 Business Name 
 
 Contact 
 
 Services / Description 
 
Fuel Prices
 
Comments
  
City of Plainwell (self-serve fuel) 269-685-6268
[web site]
[email]
Airport management, Aviation fuel

More info about City of Plainwell (self-serve fuel)
Avfuel
100LL
SS $4.49 
 Updated 03-Apr-2020
 
   write
SS=Self service
Update Fuel Prices
 

Where to Eat: Catering, Restaurants, Food shops

  
 Business Name 
 
 Contact 
 
 Services / Description 
 
Distance
 
Comments
  
Fly Inn Again 269-685-1554
no information available

If you are affiliated with Fly Inn Again and would like to show here your services, contact info, web link, logo, and more, click here
on airport  
   1 read write
 

Would you like to see your business listed on this page?

 If your business provides an interesting product or service to pilots, flight crews, aircraft, or users of the Plainwell Municipal Airport, you should consider listing it here.  To start the listing process, click on the button below
 
Add a business
 

Other Pages about Plainwell Municipal Airport

www.plainwell.org/...
Page from the Michigan Airport Directory (PDF)
 
Update a link
 
Copyright © AirNav, LLC. All rights reserved. Privacy Policy  Contact